This demonstration page uses our WeatherBlox Daily Observations layout. Learn more.

Left ArrowRight Arrow

39.29038, -76.61219

Hourly Observations for May 24, 2017

Temp ( °F °C ) Dew Point ( °F °C ) Humidity (%) Winds ( mph kmh ) Pressure ( in mb ) Visibility ( mi km ) Precip ( " mm )
12:54 am 00:54 undefined 62 16.7 58 14.4 86 86 undefined N/A 29.76 1008 N/A 0.00 0.00
1:54 am 01:54 undefined 62 16.7 58 14.4 86 86 undefined N/A 29.74 1007 N/A 0.00 0.00
2:54 am 02:54 undefined 61 16.1 58 14.4 90 90 undefined N/A 29.72 1006 N/A 0.02 0.51
3:54 am 03:54 undefined 60 15.6 57 13.9 90 90 undefined N/A 29.71 1006 N/A 0.01 0.25
4:54 am 04:54 undefined 60 15.6 57 13.9 90 90 undefined N/A 29.72 1006 N/A 0.00 0.00
5:54 am 05:54 undefined 59 15 55 12.8 87 87 undefined N/A 29.71 1006 N/A 0.01 0.25
6:54 am 06:54 undefined 59 15 54 12.2 83 83 undefined N/A 29.72 1007 N/A 0.00 0.00
7:54 am 07:54 undefined 61 16.1 55 12.8 81 81 undefined N/A 29.75 1008 N/A 0.00 0.00
8:54 am 08:54 undefined 63 17.2 54 12.2 73 73 undefined N/A 29.74 1007 N/A 0.00 0.00
9:54 am 09:54 undefined 64 17.8 54 12.2 70 70 undefined N/A 29.73 1007 N/A 0.00 0.00
10:54 am 10:54 undefined 67 19.4 56 13.3 68 68 undefined N/A 29.73 1007 N/A 0.00 0.00
11:54 am 11:54 undefined 66 18.9 55 12.8 68 68 undefined N/A 29.75 1007 N/A 0.00 0.00
12:54 pm 12:54 undefined 65 18.3 55 12.8 70 70 undefined N/A 29.75 1007 N/A 0.00 0.00
1:54 pm 13:54 undefined 66 18.9 56 13.3 70 70 undefined N/A 29.75 1008 N/A 0.00 0.00
2:54 pm 14:54 undefined 67 19.4 57 13.9 71 71 undefined N/A 29.74 1007 N/A 0.00 0.00
3:54 pm 15:54 undefined 67 19.4 57 13.9 71 71 undefined N/A 29.74 1007 N/A 0.00 0.00
4:54 pm 16:54 undefined 67 19.4 57 13.9 71 71 undefined N/A 29.73 1007 N/A 0.00 0.00
5:54 pm 17:54 undefined 67 19.4 57 13.9 71 71 undefined N/A 29.73 1007 N/A 0.00 0.00
6:54 pm 18:54 undefined 67 19.4 57 13.9 71 71 undefined N/A 29.73 1007 N/A 0.00 0.00
7:54 pm 19:54 undefined 65 18.3 55 12.8 70 70 undefined N/A 29.75 1007 N/A 0.00 0.00
8:54 pm 20:54 undefined 64 17.8 56 13.3 75 75 undefined N/A 29.75 1007 N/A 0.00 0.00
9:54 pm 21:54 undefined 63 17.2 55 12.8 76 76 undefined N/A 29.75 1007 N/A 0.00 0.00
10:54 pm 22:54 undefined 61 16.1 54 12.2 78 78 undefined N/A 29.73 1007 N/A 0.00 0.00
11:54 pm 23:54 undefined 61 16.1 55 12.8 81 81 undefined N/A 29.72 1006 N/A 0.00 0.00

Powered by AerisWeather